Location: Bosmont
(49.7318°N, 3.8587°E)
Time: 13:24:36
(UTC+00:00)

CSL-04 Rocket - Pass Details

Date: 08 February 2023
Orbit: 806 x 859 km, 98.8° (Epoch: 21 March)

Event Time Altitude Azimuth Distance (km) Brightness Sun altitude
Exits shadow 19:01:30 37° 130° (SE) 1,262 4.2 -21.4°
Maximum altitude 19:03:27 59° 69° (ENE) 954 3.6 -21.7°
Drops below altitude 10° 19:08:48 10° 351° (N) 2,464 6.2 -22.6°
Sets 19:11:12 0° 348° (NNW) 3,411 7.1 -23.0°
